Regional Weather Roundup
Issued by NWS

Home | Current Version | Previous Version | Text Only | Print | Product List | Glossary Off
Versions: 1 2 3 4 5 6 7 8 9 10 11 12 13 14 15 16 17 18 19 20 21 22 23 24 25 26 27 28 29 30 31 32 33 34 35 36 37 38 39 40 41 42 43 44 45 46 47 48 49 50

000
ASUS45 KCYS 190510
RWRWY

WYOMING REGIONAL WEATHER ROUNDUP
NATIONAL WEATHER SERVICE CHEYENNE WY
1100 PM MDT SAT APR 18 2015

NOTE:  "FAIR" INDICATES FEW OR NO CLOUDS BELOW 12,000 FEET
WITH NO SIGNIFICANT WEATHER AND/OR OBSTRUCTIONS TO VISIBILITY.

WYZ001-190600-
YELLOWSTONE NATIONAL PARK

CITY           SKY/WX    TMP DP  RH WIND       PRES   REMARKS
LK YELLOWSTONE   N/A     32  18  56 VRB3      30.21S
W YELLOWSTONE  NOT AVBL

$$
WYZ002>013-054>058-071-098>099-190600-
NORTHERN WYOMING

CITY           SKY/WX    TMP DP  RH WIND       PRES   REMARKS
JACKSON        FAIR      43  23  45 N15G21    30.13R
CODY           CLOUDY    37  30  75 NW13      30.25S WCI  29
GREYBULL       CLOUDY    45  27  49 NW24      30.18R
WORLAND        CLOUDY    44  26  49 NW17      30.17R
SHERIDAN       FAIR      37  29  72 W12       30.21S WCI  29
BUFFALO        FAIR      38  29  70 NW25G35   30.17S WCI  27
GILLETTE       MOCLDY    40  30  67 NW18G29   30.12R WCI  31
HULETT         CLOUDY    43  32  65 N17G24    30.10S
NEWCASTLE      FAIR      43  34  70 NW18G32   30.02S

$$
WYZ014>020-022>026-101>103-190600-
CENTRAL WYOMING

CITY           SKY/WX    TMP DP  RH WIND       PRES   REMARKS
BIG PINEY      CLOUDY    41  29  62 SW8       30.12R
PINEDALE       CLOUDY    41  27  56 S5        30.11R
DUBOIS         FAIR      36  28  75 SE6       30.13S WCI  31
LANDER         CLOUDY    41  30  65 E12       30.17R
RIVERTON       CLOUDY    40  27  59 N13       30.18R WCI  32
CASPER         CLOUDY    38  33  82 NE16G25   30.13R WCI  29
DOUGLAS        MOCLDY    39  37  92 NW15      30.07S WCI  31

$$
WYZ021-027>030-104>119-190600-
SOUTHERN WYOMING

CITY           SKY/WX    TMP DP  RH WIND       PRES   REMARKS
EVANSTON       CLOUDY    44  18  35 N7        30.09R
KEMMERER       FAIR      41  28  60 E6        30.13S
FORT BRIDGER   PTCLDY    39  36  87 S13       30.14R WCI  32
ROCK SPRINGS   CLOUDY    40  34  79 NE16      30.14R WCI  31
DIXON          MOCLDY    37  33  86 N9        30.12R WCI  30
RAWLINS        CLOUDY    37  35  92 N10       30.11R WCI  30
SARATOGA       LGT SNOW  32  32 100 N7        30.10R WCI  26
LARAMIE        LGT SNOW  32  31  96 N16       30.03R FOG     WCI  21
CHEYENNE       CLOUDY    38  33  82 N23G33    29.98S WCI  27
TORRINGTON     CLOUDY    46  39  76 NW18G25   29.98S
PINE BLUFFS    MOCLDY    37  36  93 N22       29.97S WCI  27

$$



USA.gov is the U.S. government's official web portal to all federal, state and local government web resources and services.